Погода в Чакино

Россия / Тамбовская область     52°14′01″N   41°57′07″E
темп.,
°C
ветер,
м/с
пор.,
м/с
влажн.,
%
обл.,
%
осадки,
мм/ч
давл.,
гПа
погр.,
м
14 мая, пт
пт1400:00+13вюв227795 0.0 101714
03:00+13вюв3488100 0.0 101844
06:00+15вюв35932 0.1 1017130
09:00+21вюв457549 0.1 1017512
12:00+24юв675911 0.0 10161242
15:00+25юв685692 0.0 10151242
18:00+23вюв367390 0.0 1014179
21:00+19юв4887100 0.0 1014135
15 мая, сб
сб1500:00+17юв41084100 0.0 1013156
03:00+15юв41188100 0.0 1013190
06:00+15ююв5127897 0.0 1013259
09:00+20ююв7126499 0.0 1014515
12:00+23ю710539 0.0 10141023
15:00+24ю6115778 0.0 10141476
18:00+23ююз376746 0.0 1013275
21:00+18юз22845 0.0 101415
16 мая, вс
вс1600:00+17з229159 0.0 101416
03:00+16с2288100 0.2 101511
06:00+17св1188100 1.6 101543
09:00+21всв337862 1.6 1015460
12:00+24юв44575 0.3 10151056
15:00+25ю46467 0.3 10151309
18:00+23ююв356689 0.0 1014154
21:00+18в237084 0.0 101415
17 мая, пн
пн1700:00+16в347492 0.0 101450
03:00+15вюв4674100 0.0 101487
06:00+17юв36707 0.0 1014114
09:00+22юв510535 0.0 1014444
12:00+25юв69475 0.0 1014810
15:00+27юв59515 0.0 10131285
18:00+24юв511659 0.0 1012390
21:00+18вюв4127431 0.0 1013190
18 мая, вт
вт1800:00+16вюв516620 0.0 1012269
03:00+15вюв514560 0.0 1012226
06:00+15юв410714 0.0 1012165
09:00+22ююв6105673 0.0 1012391
12:00+25ююв61048100 0.0 1012789
15:00+25ююв5854100 0.0 10111170
18:00+22ююз3571100 0.0 1011112
21:00+18зюз51278100 0.0 1012282